,,Stat5,,Stat1,,Stat2,,Stat3,,Stat4,,Wind1,,Wind1,
time,status,PA1M_AVG,status,PR1M_SUM,status,RH1M_AVG,status,SR1M_AVG,status,TA1M_AVG,status,W1dAve1m,status,W1sAve1m,
2001-12-07, 00:00:01,VALID,918.542,VALID,0,VALID,97.6224,VALID,-0.0169808,VALID,18.669,VALID,6,VALID,0,
2001-12-07, 00:01:01,VALID,918.527,VALID,0,VALID,97.7864,VALID,-0.0339617,VALID,18.6616,VALID,12,VALID,0,
2001-12-07, 00:02:01,VALID,918.511,VALID,0,VALID,98.0038,VALID,-0.0169808,VALID,18.7071,VALID,13,VALID,0,
2001-12-07, 00:03:01,VALID,918.49,VALID,0,VALID,98.234,VALID,-0.0169808,VALID,18.7684,VALID,11,VALID,0,
2001-12-07, 00:04:01,VALID,918.495,VALID,0,VALID,98.2493,VALID,-0.0169808,VALID,18.8169,VALID,12,VALID,0,
2001-12-07, 00:05:01,VALID,918.501,VALID,0,VALID,98.3205,VALID,0,VALID,18.8325,VALID,15,VALID,0,
2001-12-07, 00:06:01,VALID,918.504,VALID,0,VALID,98.3116,VALID,0,VALID,18.875,VALID,21,VALID,0,
2001-12-07, 00:07:01,VALID,918.5,VALID,0,VALID,98.0916,VALID,-0.0339617,VALID,18.8464,VALID,22,VALID,0,
2001-12-07, 00:08:01,VALID,918.506,VALID,0,VALID,98.056,VALID,-0.0339617,VALID,18.8236,VALID,22,VALID,0,
2001-12-07, 00:09:01,VALID,918.498,VALID,0,VALID,98.1704,VALID,-0.0679233,VALID,18.8621,VALID,22,VALID,0,
2001-12-07, 00:10:01,VALID,918.464,VALID,0,VALID,98.0852,VALID,-0.0169808,VALID,18.869,VALID,21,VALID,0,
2001-12-07, 00:11:01,VALID,918.466,VALID,0,VALID,98.0191,VALID,-0.0339617,VALID,18.8529,VALID,21,VALID,0,
2001-12-07, 00:12:01,VALID,918.462,VALID,0,VALID,98.145,VALID,-0.0169808,VALID,18.8889,VALID,18,VALID,0,
2001-12-07, 00:13:01,VALID,918.443,VALID,0,VALID,98.2276,VALID,-0.0509425,VALID,18.911,VALID,18,VALID,0,
2001-12-07, 00:14:01,VALID,918.433,VALID,0,VALID,98.22,VALID,-0.0339617,VALID,18.947,VALID,18,VALID,0,
2001-12-07, 00:15:01,VALID,918.432,VALID,0,VALID,98.0356,VALID,-0.0339617,VALID,18.917,VALID,88,VALID,0,
2001-12-07, 00:16:01,VALID,918.434,VALID,0,VALID,98.0916,VALID,-0.0509425,VALID,18.9142,VALID,145,VALID,0,
2001-12-07, 00:17:01,VALID,918.436,VALID,0,VALID,98.0623,VALID,-0.0509425,VALID,18.9105,VALID,145,VALID,0,
2001-12-07, 00:18:01,VALID,918.424,VALID,0,VALID,98.056,VALID,-0.0339617,VALID,18.9073,VALID,145,VALID,0,
2001-12-07, 00:19:00,VALID,918.431,VALID,0,VALID,98.0776,VALID,-0.0339617,VALID,18.9172,VALID,145,VALID,0,
2001-12-07, 00:20:00,VALID,918.433,VALID,0,VALID,98.1501,VALID,-0.0169808,VALID,18.9366,VALID,145,VALID,0,
2001-12-07, 00:21:00,VALID,918.429,VALID,0,VALID,98.2022,VALID,0,VALID,18.9627,VALID,145,VALID,0,
2001-12-07, 00:22:00,VALID,918.435,VALID,0,VALID,98.2175,VALID,-0.0169808,VALID,18.9784,VALID,102,VALID,0,
2001-12-07, 00:23:00,VALID,918.419,VALID,0,VALID,98.0204,VALID,-0.0339617,VALID,18.962,VALID,76,VALID,0,
2001-12-07, 00:24:00,VALID,918.407,VALID,0,VALID,98.0458,VALID,-0.0339617,VALID,18.9495,VALID,64,VALID,0,
2001-12-07, 00:25:00,VALID,918.405,VALID,0,VALID,98.1106,VALID,-0.0339617,VALID,18.9913,VALID,46,VALID,0,
2001-12-07, 00:26:00,VALID,918.412,VALID,0,VALID,97.9911,VALID,-0.0169808,VALID,18.9913,VALID,45,VALID,0,
2001-12-07, 00:27:00,VALID,918.424,VALID,0,VALID,98.0598,VALID,0,VALID,19.0109,VALID,39,VALID,0,
2001-12-07, 00:28:00,VALID,918.434,VALID,0,VALID,98.3815,VALID,-0.0339617,VALID,19.1431,VALID,326,VALID,0,
2001-12-07, 00:29:00,VALID,918.427,VALID,0,VALID,98.365,VALID,0,VALID,19.1627,VALID,4,VALID,0,
2001-12-07, 00:30:00,VALID,918.427,VALID,0,VALID,98.281,VALID,0,VALID,19.1752,VALID,3,VALID,0,
2001-12-07, 00:31:00,VALID,918.427,VALID,0,VALID,98.1679,VALID,-0.0169808,VALID,19.1692,VALID,3,VALID,0,
2001-12-07, 00:32:00,VALID,918.425,VALID,0,VALID,98.1437,VALID,-0.0169808,VALID,19.1881,VALID,3,VALID,0,
2001-12-07, 00:33:00,VALID,918.415,VALID,0,VALID,98.1513,VALID,0,VALID,19.2137,VALID,3,VALID,0,
2001-12-07, 00:34:00,VALID,918.416,VALID,0,VALID,98.0585,VALID,0,VALID,19.24,VALID,3,VALID,0,
2001-12-07, 00:35:00,VALID,918.433,VALID,0,VALID,97.8945,VALID,0.0169808,VALID,19.2236,VALID,3,VALID,0,
2001-12-07, 00:36:00,VALID,918.447,VALID,0,VALID,97.7076,VALID,-0.0169808,VALID,19.2008,VALID,3,VALID,0,
2001-12-07, 00:37:00,VALID,918.451,VALID,0,VALID,97.7978,VALID,0,VALID,19.2199,VALID,3,VALID,0,
2001-12-07, 00:38:00,VALID,918.444,VALID,0,VALID,97.9415,VALID,0,VALID,19.2942,VALID,3,VALID,0,
2001-12-07, 00:39:00,VALID,918.427,VALID,0,VALID,97.9428,VALID,-0.0169808,VALID,19.3531,VALID,3,VALID,0,
2001-12-07, 00:40:00,VALID,918.419,VALID,0,VALID,97.7749,VALID,-0.0169808,VALID,19.3593,VALID,3,VALID,0,
2001-12-07, 00:41:00,VALID,918.399,VALID,0,VALID,97.6592,VALID,0,VALID,19.3528,VALID,3,VALID,0,
2001-12-07, 00:42:00,VALID,918.389,VALID,0,VALID,97.4583,VALID,0,VALID,19.3434,VALID,3,VALID,0,
2001-12-07, 00:43:00,VALID,918.379,VALID,0,VALID,97.2396,VALID,-0.0339617,VALID,19.2912,VALID,3,VALID,0,
2001-12-07, 00:44:00,VALID,918.379,VALID,0,VALID,97.1023,VALID,-0.0169808,VALID,19.2683,VALID,3,VALID,0,
2001-12-07, 00:45:00,VALID,918.386,VALID,0,VALID,96.867,VALID,0,VALID,19.243,VALID,3,VALID,0,
2001-12-07, 00:46:00,VALID,918.385,VALID,0,VALID,96.6598,VALID,0,VALID,19.1846,VALID,3,VALID,0,
2001-12-07, 00:47:00,VALID,918.393,VALID,0,VALID,96.5555,VALID,-0.0169808,VALID,19.1426,VALID,3,VALID,0,
2001-12-07, 00:48:00,VALID,918.393,VALID,0,VALID,96.8467,VALID,-0.0169808,VALID,19.156,VALID,3,VALID,0,
2001-12-07, 00:49:00,VALID,918.38,VALID,0,VALID,97.0578,VALID,-0.0169808,VALID,19.1749,VALID,5,VALID,0,
2001-12-07, 00:50:00,VALID,918.371,VALID,0,VALID,97.2142,VALID,-0.0169808,VALID,19.2005,VALID,6,VALID,0,
2001-12-07, 00:51:00,VALID,918.372,VALID,0,VALID,97.2015,VALID,0.0169808,VALID,19.2134,VALID,6,VALID,0,
2001-12-07, 00:52:00,VALID,918.37,VALID,0,VALID,97.2447,VALID,0,VALID,19.2268,VALID,6,VALID,0,
2001-12-07, 00:53:00,VALID,918.375,VALID,0,VALID,97.3731,VALID,0.0169808,VALID,19.2524,VALID,6,VALID,0,
2001-12-07, 00:54:00,VALID,918.372,VALID,0,VALID,97.3528,VALID,0,VALID,19.2621,VALID,6,VALID,0,
2001-12-07, 00:55:00,VALID,918.359,VALID,0,VALID,97.3401,VALID,0,VALID,19.2651,VALID,2,VALID,0,
2001-12-07, 00:56:00,VALID,918.354,VALID,0,VALID,97.3668,VALID,0,VALID,19.2882,VALID,358,VALID,0,
2001-12-07, 00:57:00,VALID,918.334,VALID,0,VALID,97.41,VALID,0.0339617,VALID,19.2969,VALID,359,VALID,0,
2001-12-07, 00:58:00,VALID,918.314,VALID,0,VALID,97.5651,VALID,0,VALID,19.3392,VALID,7,VALID,0,
2001-12-07, 00:59:00,VALID,918.294,VALID,0,VALID,97.5804,VALID,0.0169808,VALID,19.3583,VALID,7,VALID,0,
2001-12-07, 01:00:00,VALID,918.284,VALID,0,VALID,97.6236,VALID,0,VALID,19.3876,VALID,13,VALID,0,
2001-12-07, 01:01:00,VALID,918.283,VALID,0,VALID,97.6147,VALID,0,VALID,19.4164,VALID,15,VALID,0,
2001-12-07, 01:02:00,VALID,918.269,VALID,0,VALID,97.6147,VALID,0.0339617,VALID,19.4619,VALID,6,VALID,0,
2001-12-07, 01:03:00,VALID,918.273,VALID,0,VALID,97.6313,VALID,0.0339617,VALID,19.4905,VALID,7,VALID,0,
2001-12-07, 01:04:00,VALID,918.265,VALID,0,VALID,97.5181,VALID,0.0169808,VALID,19.5002,VALID,7,VALID,0,
2001-12-07, 01:05:00,VALID,918.245,VALID,0,VALID,97.4367,VALID,0.0169808,VALID,19.5101,VALID,7,VALID,0,
2001-12-07, 01:06:00,VALID,918.244,VALID,0,VALID,97.3553,VALID,0,VALID,19.5203,VALID,7,VALID,0,
2001-12-07, 01:07:00,VALID,918.22,VALID,0,VALID,97.2434,VALID,0,VALID,19.5066,VALID,7,VALID,0,
2001-12-07, 01:08:00,VALID,918.229,VALID,0,VALID,97.2078,VALID,0,VALID,19.5203,VALID,7,VALID,0,
2001-12-07, 01:09:00,VALID,918.231,VALID,0,VALID,97.2167,VALID,0,VALID,19.5193,VALID,7,VALID,0,
2001-12-07, 01:10:00,VALID,918.23,VALID,0,VALID,97.2739,VALID,0.0509425,VALID,19.5553,VALID,7,VALID,0,
2001-12-07, 01:11:00,VALID,918.224,VALID,0,VALID,97.19,VALID,0.0339617,VALID,19.5616,VALID,7,VALID,0,
2001-12-07, 01:12:00,VALID,918.232,VALID,0,VALID,97.1341,VALID,0.0169808,VALID,19.568,VALID,7,VALID,0,
2001-12-07, 01:13:00,VALID,918.208,VALID,0,VALID,97.0857,VALID,0,VALID,19.578,VALID,7,VALID,0,
2001-12-07, 01:14:00,VALID,918.192,VALID,0,VALID,96.9942,VALID,0.0169808,VALID,19.565,VALID,7,VALID,0,
2001-12-07, 01:15:00,VALID,918.175,VALID,0,VALID,96.8568,VALID,0,VALID,19.5551,VALID,7,VALID,0,
2001-12-07, 01:16:00,VALID,918.172,VALID,0,VALID,96.8022,VALID,0,VALID,19.5322,VALID,7,VALID,0,
2001-12-07, 01:17:00,VALID,918.165,VALID,0,VALID,96.8123,VALID,0.0339617,VALID,19.5424,VALID,7,VALID,0,
2001-12-07, 01:18:00,VALID,918.163,VALID,0,VALID,96.8785,VALID,0.0169808,VALID,19.5422,VALID,7,VALID,0,
2001-12-07, 01:19:00,VALID,918.164,VALID,0,VALID,96.8467,VALID,0.0169808,VALID,19.5419,VALID,7,VALID,0,
2001-12-07, 01:20:00,VALID,918.155,VALID,0,VALID,96.8632,VALID,0,VALID,19.5489,VALID,7,VALID,0,
2001-12-07, 01:21:00,VALID,918.159,VALID,0,VALID,96.8696,VALID,-0.0169808,VALID,19.5658,VALID,7,VALID,0,
2001-12-07, 01:22:00,VALID,918.166,VALID,0,VALID,96.8772,VALID,0,VALID,19.5583,VALID,7,VALID,0,
2001-12-07, 01:23:00,VALID,918.153,VALID,0,VALID,96.8874,VALID,-0.0339617,VALID,19.5621,VALID,7,VALID,0,
2001-12-07, 01:24:00,VALID,918.16,VALID,0,VALID,96.9573,VALID,-0.0169808,VALID,19.5715,VALID,7,VALID,0,
2001-12-07, 01:25:00,VALID,918.151,VALID,0,VALID,97.0629,VALID,0.0169808,VALID,19.5906,VALID,7,VALID,0,
2001-12-07, 01:26:00,VALID,918.135,VALID,0,VALID,97.1035,VALID,0,VALID,19.6167,VALID,8,VALID,0,
2001-12-07, 01:27:00,VALID,918.11,VALID,0,VALID,97.0883,VALID,0.0169808,VALID,19.6296,VALID,8,VALID,0,
2001-12-07, 01:28:00,VALID,918.092,VALID,0,VALID,97.045,VALID,0.0509425,VALID,19.6262,VALID,352,VALID,0,
2001-12-07, 01:29:00,VALID,918.07,VALID,0,VALID,97.1023,VALID,0.0339617,VALID,19.6388,VALID,356,VALID,0,
2001-12-07, 01:30:00,VALID,918.08,VALID,0,VALID,97.1035,VALID,0.0169808,VALID,19.6485,VALID,348,VALID,0,
2001-12-07, 01:31:00,VALID,918.062,VALID,0,VALID,97.0641,VALID,0,VALID,19.6644,VALID,350,VALID,0,
2001-12-07, 01:32:00,VALID,918.053,VALID,0,VALID,97.0158,VALID,0,VALID,19.6714,VALID,357,VALID,0,
2001-12-07, 01:33:00,VALID,918.045,VALID,0,VALID,96.9306,VALID,0.0169808,VALID,19.6649,VALID,4,VALID,0,
2001-12-07, 01:34:00,VALID,918.047,VALID,0,VALID,96.909,VALID,0,VALID,19.6455,VALID,12,VALID,0,
2001-12-07, 01:35:00,VALID,918.067,VALID,0,VALID,96.8785,VALID,0,VALID,19.652,VALID,12,VALID,0,
2001-12-07, 01:36:00,VALID,918.062,VALID,0,VALID,96.8657,VALID,0.0339617,VALID,19.6552,VALID,13,VALID,0,
2001-12-07, 01:37:00,VALID,918.067,VALID,0,VALID,96.8594,VALID,0.0509425,VALID,19.6515,VALID,13,VALID,0,
2001-12-07, 01:38:00,VALID,918.079,VALID,0,VALID,96.9052,VALID,0.0169808,VALID,19.652,VALID,13,VALID,0,
2001-12-07, 01:39:00,VALID,918.083,VALID,0,VALID,96.9166,VALID,0.0339617,VALID,19.6679,VALID,12,VALID,0,
2001-12-07, 01:40:00,VALID,918.094,VALID,0,VALID,96.8848,VALID,0,VALID,19.655,VALID,12,VALID,0,
2001-12-07, 01:41:00,VALID,918.087,VALID,0,VALID,96.8212,VALID,0.0339617,VALID,19.6453,VALID,12,VALID,0,
2001-12-07, 01:42:00,VALID,918.091,VALID,0,VALID,96.8645,VALID,0,VALID,19.6585,VALID,12,VALID,0,
2001-12-07, 01:43:00,VALID,918.102,VALID,0,VALID,96.8734,VALID,0,VALID,19.6582,VALID,12,VALID,0,
2001-12-07, 01:44:00,VALID,918.086,VALID,0,VALID,96.7589,VALID,0.0169808,VALID,19.6555,VALID,10,VALID,0,
2001-12-07, 01:45:00,VALID,918.08,VALID,0,VALID,96.633,VALID,0.0339617,VALID,19.6324,VALID,9,VALID,0,
2001-12-07, 01:46:00,VALID,918.09,VALID,0,VALID,96.6954,VALID,0,VALID,19.6393,VALID,10,VALID,0,
2001-12-07, 01:47:00,VALID,918.068,VALID,0,VALID,96.6508,VALID,0,VALID,19.6068,VALID,354,VALID,0,
2001-12-07, 01:48:00,VALID,918.08,VALID,0,VALID,96.8034,VALID,0,VALID,19.5996,VALID,353,VALID,0,
2001-12-07, 01:49:00,VALID,918.08,VALID,0,VALID,96.8123,VALID,0.0339617,VALID,19.6195,VALID,17,VALID,0,
2001-12-07, 01:50:00,VALID,918.07,VALID,0,VALID,96.8212,VALID,0,VALID,19.6031,VALID,16,VALID,0,
2001-12-07, 01:51:00,VALID,918.046,VALID,0,VALID,96.7984,VALID,0,VALID,19.6108,VALID,16,VALID,0,
2001-12-07, 01:52:00,VALID,918.022,VALID,0,VALID,96.8683,VALID,-0.0169808,VALID,19.6098,VALID,14,VALID,0,
2001-12-07, 01:53:00,VALID,918.02,VALID,0,VALID,96.9255,VALID,-0.0169808,VALID,19.6098,VALID,360,VALID,0.222039,
2001-12-07, 01:54:00,VALID,918.009,VALID,0,VALID,96.9484,VALID,-0.0169808,VALID,19.6132,VALID,358,VALID,0.0487253,
2001-12-07, 01:55:00,VALID,917.99,VALID,0,VALID,96.9179,VALID,-0.0339617,VALID,19.6036,VALID,353,VALID,0.0234375,
2001-12-07, 01:56:00,VALID,917.987,VALID,0,VALID,96.9777,VALID,-0.0169808,VALID,19.6038,VALID,360,VALID,0,
2001-12-07, 01:57:00,VALID,917.973,VALID,0,VALID,96.9751,VALID,-0.0169808,VALID,19.61,VALID,3,VALID,0,
2001-12-07, 01:58:00,VALID,917.948,VALID,0,VALID,96.9204,VALID,0,VALID,19.6202,VALID,3,VALID,0,
2001-12-07, 01:59:00,VALID,917.918,VALID,0,VALID,96.8937,VALID,0,VALID,19.5971,VALID,3,VALID,0,
2001-12-07, 02:00:00,VALID,917.887,VALID,0,VALID,96.7984,VALID,0,VALID,19.5777,VALID,3,VALID,0,
2001-12-07, 02:01:00,VALID,917.854,VALID,0,VALID,96.8009,VALID,0,VALID,19.5688,VALID,10,VALID,0,
2001-12-07, 02:02:00,VALID,917.833,VALID,0,VALID,96.8047,VALID,-0.0169808,VALID,19.5424,VALID,12,VALID,0.336143,
2001-12-07, 02:03:00,VALID,917.813,VALID,0,VALID,96.8327,VALID,-0.0339617,VALID,19.5268,VALID,12,VALID,0.650082,
2001-12-07, 02:04:00,VALID,917.803,VALID,0,VALID,96.8607,VALID,0,VALID,19.4967,VALID,12,VALID,0.758008,
2001-12-07, 02:05:00,VALID,917.79,VALID,0,VALID,96.7984,VALID,-0.0169808,VALID,19.4609,VALID,12,VALID,0.894737,
2001-12-07, 02:06:00,VALID,917.767,VALID,0,VALID,97.0374,VALID,0,VALID,19.4547,VALID,11,VALID,1.00962,
2001-12-07, 02:07:00,VALID,917.763,VALID,0,VALID,97.0705,VALID,0,VALID,19.4356,VALID,11,VALID,0.641859,
2001-12-07, 02:08:00,VALID,917.737,VALID,0,VALID,97.2027,VALID,0,VALID,19.4192,VALID,10,VALID,0.363867,
2001-12-07, 02:09:00,VALID,917.731,VALID,0,VALID,97.3693,VALID,0.0169808,VALID,19.4324,VALID,10,VALID,0.283923,
2001-12-07, 02:10:00,VALID,917.727,VALID,0,VALID,97.4253,VALID,0.0169808,VALID,19.4321,VALID,1,VALID,0.32134,
2001-12-07, 02:11:00,VALID,917.719,VALID,0,VALID,97.4901,VALID,0,VALID,19.4353,VALID,354,VALID,0.436883,
2001-12-07, 02:12:00,VALID,917.71,VALID,0,VALID,97.555,VALID,0,VALID,19.445,VALID,355,VALID,0.610937,
2001-12-07, 02:13:00,VALID,917.708,VALID,0,VALID,97.5715,VALID,0.0169808,VALID,19.4418,VALID,352,VALID,0.474918,
2001-12-07, 02:14:00,VALID,917.696,VALID,0,VALID,97.5728,VALID,0.0169808,VALID,19.4353,VALID,349,VALID,0.404046,
2001-12-07, 02:15:00,VALID,917.704,VALID,0,VALID,97.5575,VALID,0,VALID,19.4393,VALID,341,VALID,0.265625,
2001-12-07, 02:16:00,VALID,917.711,VALID,0,VALID,97.6643,VALID,0,VALID,19.4483,VALID,320,VALID,0.33125,
2001-12-07, 02:17:00,VALID,917.708,VALID,0,VALID,97.6821,VALID,0,VALID,19.4545,VALID,316,VALID,0.102179,
2001-12-07, 02:18:00,VALID,917.703,VALID,0,VALID,97.5766,VALID,-0.0169808,VALID,19.4291,VALID,316,VALID,0,
2001-12-07, 02:19:00,VALID,917.706,VALID,0,VALID,97.5435,VALID,0,VALID,19.403,VALID,319,VALID,0.0078125,
2001-12-07, 02:20:00,VALID,917.716,VALID,0,VALID,97.6796,VALID,0,VALID,19.4296,VALID,356,VALID,0.307617,
2001-12-07, 02:21:00,VALID,917.711,VALID,0,VALID,97.5295,VALID,0,VALID,19.3901,VALID,359,VALID,0.00986842,
2001-12-07, 02:22:00,VALID,917.7,VALID,0,VALID,97.5015,VALID,0,VALID,19.3707,VALID,359,VALID,0,
2001-12-07, 02:23:00,VALID,917.673,VALID,0,VALID,97.4532,VALID,0,VALID,19.3417,VALID,1,VALID,0,
2001-12-07, 02:24:00,VALID,917.652,VALID,0,VALID,97.3731,VALID,0,VALID,19.3292,VALID,1,VALID,0,
2001-12-07, 02:25:00,VALID,917.608,VALID,0,VALID,97.3935,VALID,0,VALID,19.3163,VALID,1,VALID,0,
2001-12-07, 02:26:00,VALID,917.586,VALID,0,VALID,97.4698,VALID,0.0169808,VALID,19.2967,VALID,1,VALID,0,
2001-12-07, 02:27:00,VALID,917.583,VALID,0,VALID,97.6516,VALID,-0.0339617,VALID,19.3126,VALID,1,VALID,0,
2001-12-07, 02:28:00,VALID,917.584,VALID,0,VALID,97.6122,VALID,0,VALID,19.3168,VALID,1,VALID,0,
2001-12-07, 02:29:00,VALID,917.592,VALID,0,VALID,97.6058,VALID,0.0169808,VALID,19.29,VALID,1,VALID,0,
2001-12-07, 02:30:00,VALID,917.588,VALID,0,VALID,97.6656,VALID,0,VALID,19.2997,VALID,1,VALID,0,
2001-12-07, 02:31:00,VALID,917.577,VALID,0,VALID,97.602,VALID,0.0169808,VALID,19.3099,VALID,1,VALID,0,
2001-12-07, 02:32:00,VALID,917.565,VALID,0,VALID,97.4164,VALID,0.0169808,VALID,19.2577,VALID,1,VALID,0.212695,
2001-12-07, 02:33:00,VALID,917.55,VALID,0,VALID,97.4977,VALID,0,VALID,19.2681,VALID,1,VALID,0.207648,
2001-12-07, 02:34:00,VALID,917.552,VALID,0,VALID,97.5308,VALID,0,VALID,19.2676,VALID,337,VALID,0.343339,
2001-12-07, 02:35:00,VALID,917.544,VALID,0,VALID,97.7864,VALID,-0.0339617,VALID,19.3133,VALID,322,VALID,0.235609,
2001-12-07, 02:36:00,VALID,917.546,VALID,0,VALID,97.8296,VALID,-0.0169808,VALID,19.3258,VALID,334,VALID,0.160742,
2001-12-07, 02:37:00,VALID,917.549,VALID,0,VALID,97.8449,VALID,0,VALID,19.3486,VALID,351,VALID,0.0213816,
2001-12-07, 02:38:00,VALID,917.561,VALID,0,VALID,97.7381,VALID,0,VALID,19.3322,VALID,353,VALID,0,
2001-12-07, 02:39:00,VALID,917.555,VALID,0,VALID,97.7521,VALID,-0.0169808,VALID,19.3362,VALID,353,VALID,0,
2001-12-07, 02:40:00,VALID,917.541,VALID,0,VALID,97.766,VALID,0,VALID,19.3456,VALID,353,VALID,0,
2001-12-07, 02:41:00,VALID,917.519,VALID,0,VALID,97.7521,VALID,-0.0339617,VALID,19.3456,VALID,8,VALID,0,
2001-12-07, 02:42:00,VALID,917.493,VALID,0,VALID,97.9225,VALID,0.0169808,VALID,19.3707,VALID,26,VALID,0.362048,
2001-12-07, 02:43:00,VALID,917.48,VALID,0,VALID,97.9657,VALID,0,VALID,19.4005,VALID,22,VALID,0.0483141,
2001-12-07, 02:44:00,VALID,917.46,VALID,0,VALID,97.8996,VALID,0,VALID,19.3971,VALID,22,VALID,0,
2001-12-07, 02:45:00,VALID,917.425,VALID,0,VALID,97.8589,VALID,0,VALID,19.3804,VALID,22,VALID,0,
2001-12-07, 02:46:00,VALID,917.43,VALID,0,VALID,97.8754,VALID,0.0169808,VALID,19.3906,VALID,22,VALID,0,
2001-12-07, 02:47:00,VALID,917.415,VALID,0,VALID,97.8474,VALID,0,VALID,19.3936,VALID,22,VALID,0,
2001-12-07, 02:48:00,VALID,917.406,VALID,0,VALID,97.8627,VALID,0,VALID,19.4035,VALID,22,VALID,0,
2001-12-07, 02:49:00,VALID,917.401,VALID,0,VALID,97.864,VALID,0,VALID,19.403,VALID,22,VALID,0,
2001-12-07, 02:50:00,VALID,917.41,VALID,0,VALID,97.7991,VALID,-0.0169808,VALID,19.4,VALID,22,VALID,0,
2001-12-07, 02:51:00,VALID,917.417,VALID,0,VALID,97.5511,VALID,-0.0169808,VALID,19.3645,VALID,21,VALID,0.330592,
2001-12-07, 02:52:00,VALID,917.398,VALID,0,VALID,97.5575,VALID,0,VALID,19.3484,VALID,21,VALID,0.326953,
2001-12-07, 02:53:00,VALID,917.374,VALID,0,VALID,97.7076,VALID,0,VALID,19.3511,VALID,21,VALID,0.00703125,
2001-12-07, 02:54:00,VALID,917.354,VALID,0,VALID,97.7101,VALID,-0.0169808,VALID,19.3643,VALID,21,VALID,0,
2001-12-07, 02:55:00,VALID,917.35,VALID,0,VALID,97.7228,VALID,0,VALID,19.3451,VALID,21,VALID,0,
2001-12-07, 02:56:00,VALID,917.35,VALID,0,VALID,97.8055,VALID,0,VALID,19.3514,VALID,21,VALID,0,
2001-12-07, 02:57:00,VALID,917.36,VALID,0,VALID,97.8055,VALID,0,VALID,19.3608,VALID,18,VALID,0.0941612,
2001-12-07, 02:58:00,VALID,917.367,VALID,0,VALID,97.7686,VALID,0.0169808,VALID,19.3543,VALID,1,VALID,0.119038,
2001-12-07, 02:59:00,VALID,917.372,VALID,0,VALID,97.9428,VALID,0,VALID,19.3772,VALID,359,VALID,0.503906,
2001-12-07, 03:00:00,VALID,917.368,VALID,0,VALID,97.8856,VALID,0,VALID,19.3871,VALID,4,VALID,0.65293,
2001-12-07, 03:01:00,VALID,917.386,VALID,0,VALID,97.9008,VALID,0,VALID,19.3901,VALID,2,VALID,0.600329,
2001-12-07, 03:02:00,VALID,917.362,VALID,0,VALID,97.9059,VALID,0.0169808,VALID,19.3998,VALID,6,VALID,0.797276,
2001-12-07, 03:03:00,VALID,917.345,VALID,0,VALID,97.9657,VALID,0,VALID,19.4132,VALID,11,VALID,0.784334,
2001-12-07, 03:04:00,VALID,917.342,VALID,0,VALID,97.9657,VALID,0,VALID,19.413,VALID,15,VALID,0.7625,
2001-12-07, 03:05:00,VALID,917.333,VALID,0,VALID,97.9136,VALID,0,VALID,19.4065,VALID,20,VALID,0.701275,
2001-12-07, 03:06:00,VALID,917.347,VALID,0,VALID,97.9046,VALID,-0.0169808,VALID,19.403,VALID,21,VALID,0.422286,
2001-12-07, 03:07:00,VALID,917.353,VALID,0,VALID,97.8843,VALID,0,VALID,19.3968,VALID,21,VALID,0.0910773,
2001-12-07, 03:08:00,VALID,917.383,VALID,0,VALID,97.9059,VALID,0,VALID,19.4035,VALID,21,VALID,0,
2001-12-07, 03:09:00,VALID,917.405,VALID,0,VALID,97.9403,VALID,0,VALID,19.4068,VALID,21,VALID,0,
2001-12-07, 03:10:00,VALID,917.401,VALID,0,VALID,97.986,VALID,0,VALID,19.4127,VALID,21,VALID,0,
2001-12-07, 03:11:00,VALID,917.395,VALID,0,VALID,98.0127,VALID,0,VALID,19.4227,VALID,21,VALID,0.134046,
2001-12-07, 03:12:00,VALID,917.391,VALID,0,VALID,98.0369,VALID,0,VALID,19.4353,VALID,21,VALID,0.009375,
2001-12-07, 03:13:00,VALID,917.384,VALID,0,VALID,98.028,VALID,0.0169808,VALID,19.4286,VALID,21,VALID,0,
2001-12-07, 03:14:00,VALID,917.368,VALID,0,VALID,98.0344,VALID,0.0169808,VALID,19.4386,VALID,21,VALID,0,
2001-12-07, 03:15:00,VALID,917.364,VALID,0,VALID,98.0255,VALID,0,VALID,19.4351,VALID,21,VALID,0,
2001-12-07, 03:16:00,VALID,917.354,VALID,0,VALID,98.0471,VALID,0,VALID,19.442,VALID,21,VALID,0,
2001-12-07, 03:17:00,VALID,917.315,VALID,0,VALID,98.0077,VALID,0,VALID,19.445,VALID,21,VALID,0,
2001-12-07, 03:18:00,VALID,917.31,VALID,0,VALID,97.9822,VALID,0,VALID,19.442,VALID,21,VALID,0,
2001-12-07, 03:19:00,VALID,917.297,VALID,0,VALID,97.9314,VALID,0,VALID,19.4321,VALID,21,VALID,0,
2001-12-07, 03:20:00,VALID,917.31,VALID,0,VALID,97.8919,VALID,0,VALID,19.4224,VALID,21,VALID,0,
2001-12-07, 03:21:00,VALID,917.315,VALID,0,VALID,97.8665,VALID,0.0339617,VALID,19.4224,VALID,21,VALID,0,
2001-12-07, 03:22:00,VALID,917.32,VALID,0,VALID,97.8347,VALID,0.0169808,VALID,19.4229,VALID,21,VALID,0,
2001-12-07, 03:23:00,VALID,917.324,VALID,0,VALID,97.7737,VALID,0.0339617,VALID,19.4003,VALID,21,VALID,0,
2001-12-07, 03:24:00,VALID,917.328,VALID,0,VALID,97.6414,VALID,0,VALID,19.3648,VALID,21,VALID,0,
2001-12-07, 03:25:00,VALID,917.314,VALID,0,VALID,97.41,VALID,0.0169808,VALID,19.3029,VALID,21,VALID,0,
2001-12-07, 03:26:00,VALID,917.294,VALID,0,VALID,97.1722,VALID,0.0169808,VALID,19.2381,VALID,21,VALID,0.192909,
2001-12-07, 03:27:00,VALID,917.255,VALID,0,VALID,97.349,VALID,0.0169808,VALID,19.2194,VALID,19,VALID,0.795436,
2001-12-07, 03:28:00,VALID,917.238,VALID,0,VALID,97.5804,VALID,0,VALID,19.2256,VALID,18,VALID,0.845117,
2001-12-07, 03:29:00,VALID,917.216,VALID,0,VALID,97.7902,VALID,0,VALID,19.2452,VALID,4,VALID,0.779811,
2001-12-07, 03:30:00,VALID,917.208,VALID,0,VALID,98.0102,VALID,0,VALID,19.2838,VALID,352,VALID,0.539885,
2001-12-07, 03:31:00,VALID,917.231,VALID,0,VALID,98.1145,VALID,0,VALID,19.3133,VALID,349,VALID,0.0789474,
2001-12-07, 03:32:00,VALID,917.234,VALID,0,VALID,98.1755,VALID,-0.0339617,VALID,19.3456,VALID,349,VALID,0.266211,
2001-12-07, 03:33:00,VALID,917.247,VALID,0,VALID,98.2009,VALID,0,VALID,19.3717,VALID,349,VALID,0.167146,
2001-12-07, 03:34:00,VALID,917.244,VALID,0,VALID,98.2009,VALID,-0.0169808,VALID,19.3908,VALID,358,VALID,0.113582,
2001-12-07, 03:35:00,VALID,917.25,VALID,0,VALID,98.1526,VALID,-0.0169808,VALID,19.3871,VALID,360,VALID,0.0647615,
2001-12-07, 03:36:00,VALID,917.253,VALID,0,VALID,98.0763,VALID,0,VALID,19.3807,VALID,3,VALID,0.353906,
2001-12-07, 03:37:00,VALID,917.258,VALID,0,VALID,97.8131,VALID,0.0169808,VALID,19.3322,VALID,1,VALID,0.559211,
2001-12-07, 03:38:00,VALID,917.239,VALID,0,VALID,97.7126,VALID,0,VALID,19.2835,VALID,9,VALID,0.983141,
2001-12-07, 03:39:00,VALID,917.23,VALID,0,VALID,97.7686,VALID,-0.0169808,VALID,19.287,VALID,7,VALID,0.7831,
2001-12-07, 03:40:00,VALID,917.246,VALID,0,VALID,97.7368,VALID,0,VALID,19.2972,VALID,13,VALID,0.65293,
2001-12-07, 03:41:00,VALID,917.246,VALID,0,VALID,97.7571,VALID,-0.0339617,VALID,19.2907,VALID,12,VALID,0.47574,
2001-12-07, 03:42:00,VALID,917.264,VALID,0,VALID,97.7317,VALID,-0.0169808,VALID,19.3041,VALID,12,VALID,0.316306,
2001-12-07, 03:43:00,VALID,917.279,VALID,0,VALID,97.7139,VALID,0,VALID,19.2875,VALID,357,VALID,0.396176,
2001-12-07, 03:44:00,VALID,917.281,VALID,0,VALID,97.705,VALID,0,VALID,19.2902,VALID,334,VALID,0.158789,
2001-12-07, 03:45:00,VALID,917.29,VALID,0,VALID,97.6936,VALID,-0.0169808,VALID,19.2932,VALID,328,VALID,0.332442,
2001-12-07, 03:46:00,VALID,917.3,VALID,0,VALID,97.7648,VALID,0,VALID,19.3066,VALID,301,VALID,0.48273,
2001-12-07, 03:47:00,VALID,917.314,VALID,0,VALID,97.8614,VALID,0,VALID,19.326,VALID,289,VALID,0.325658,
2001-12-07, 03:48:00,VALID,917.295,VALID,0,VALID,97.9314,VALID,0,VALID,19.3292,VALID,313,VALID,0.243164,